DL4NBA-1 Weather Reports


Display with metric or nautical units.
time (UTC)temp
F
wind
direction
speed
MPH
gust
MPH
rain 1hr
in
rain 24hr
in
rain mn
in
humidity
%
barometer
mb
20240718040626 54 114 0.0 0.0 0.00 0.00 0.00
20240718040127 55 114 0.0 0.0 0.00 0.00 0.00
20240718035628 57 114 0.0 0.0 0.00 0.00 0.00
20240718035130 58 114 0.0 0.0 0.00 0.00 0.00
20240718033630 59 114 0.0 0.0 0.00 0.00 0.00
20240718032633 58 114 0.0 0.0 0.00 0.00 0.00
20240718032134 59 114 0.0 0.0 0.00 0.00 0.00
20240718031134 58 114 0.0 0.0 0.00 0.00 0.00
20240718030633 59 114 0.0 0.0 0.00 0.00 0.00
20240718025636 58 114 0.0 0.0 0.00 0.00 0.00
20240718025133 58 114 0.0 0.0 0.00 0.00 0.00
20240718024635 56 114 0.0 0.0 0.00 0.00 0.00
20240718024135 59 114 0.0 0.0 0.00 0.00 0.00
20240718023636 59 114 0.0 0.0 0.00 0.00 0.00
20240718023138 60 114 0.0 0.0 0.00 0.00 0.00
20240718022635 59 114 0.0 0.0 0.00 0.00 0.00
20240718022136 58 114 0.0 0.0 0.00 0.00 0.00
20240718021636 59 114 0.0 0.0 0.00 0.00 0.00
20240718021136 60 114 0.0 0.0 0.00 0.00 0.00
20240718020637 60 114 0.0 0.0 0.00 0.00 0.00
20240718020136 60 114 0.0 0.0 0.00 0.00 0.00
20240718015634 60 114 0.0 0.0 0.00 0.00 0.00
20240718015133 60 114 0.0 0.0 0.00 0.00 0.00
20240718014135 59 114 0.0 0.0 0.00 0.00 0.00
20240718012634 60 114 0.0 0.0 0.00 0.00 0.00
20240718012135 59 114 0.0 0.0 0.00 0.00 0.00
20240718011636 59 114 0.0 0.0 0.00 0.00 0.00
20240718011134 59 114 0.0 0.0 0.00 0.00 0.00
20240718010634 58 114 0.0 0.0 0.00 0.00 0.00
20240718010135 57 114 0.0 0.0 0.00 0.00 0.00
20240718005637 61 114 0.0 0.0 0.00 0.00 0.00
20240718005138 59 114 0.0 0.0 0.00 0.00 0.00
20240718004635 62 114 0.0 0.0 0.00 0.00 0.00
20240718003634 62 148 0.0 0.0 0.00 0.00 0.00
20240718003135 58 148 0.0 0.0 0.00 0.00 0.00
20240718002636 58 148 0.0 0.0 0.00 0.00 0.00
20240718002134 60 148 0.0 0.0 0.00 0.00 0.00
20240718001635 59 148 0.0 0.0 0.00 0.00 0.00
20240718001132 59 148 0.0 0.0 0.00 0.00 0.00
20240718000633 60 148 0.0 0.0 0.00 0.00 0.00
20240718000134 62 148 0.0 0.0 0.00 0.00 0.00
20240717235632 61 148 0.0 0.0 0.00 0.00 0.00
20240717235134 62 148 0.0 0.0 0.00 0.00 0.00
20240717234635 63 148 0.0 0.0 0.00 0.00 0.00
20240717234134 64 148 1.0 0.0 0.00 0.00 0.00
20240717233636 63 148 1.0 0.0 0.00 0.00 0.00
20240717233134 62 187 1.0 1.0 0.00 0.00 0.00
20240717232635 59 132 0.0 0.0 0.00 0.00 0.00
20240717232137 62 132 0.0 0.0 0.00 0.00 0.00
20240717231638 63 132 0.0 0.0 0.00 0.00 0.00
20240717231139 58 132 0.0 0.0 0.00 0.00 0.00
20240717230636 60 132 0.0 0.0 0.00 0.00 0.00
20240717230137 64 132 0.0 0.0 0.00 0.00 0.00
20240717225638 60 132 0.0 0.0 0.00 0.00 0.00
20240717225139 64 132 0.0 0.0 0.00 0.00 0.00
20240717224640 64 132 1.0 0.0 0.00 0.00 0.00
20240717224138 64 149 0.0 1.0 0.00 0.00 0.00
20240717223639 58 243 1.0 0.0 0.00 0.00 0.00
20240717223140 61 155 0.0 0.0 0.00 0.00 0.00
20240717222143 64 155 0.0 0.0 0.00 0.00 0.00
20240717221640 61 155 0.0 0.0 0.00 0.00 0.00
20240717221142 65 155 0.0 0.0 0.00 0.00 0.00
20240717220643 65 155 2.0 2.0 0.00 0.00 0.00
20240717220144 64 153 1.0 2.0 0.00 0.00 0.00
20240717215645 59 256 2.0 2.0 0.00 0.00 0.00
20240717215143 61 294 0.0 3.0 0.00 0.00 0.00
20240717214644 63 304 0.0 0.0 0.00 0.00 0.00
20240717213647 61 304 0.0 0.0 0.00 0.00 0.00
20240717213148 66 304 0.0 0.0 0.00 0.00 0.00
20240717212147 68 304 0.0 0.0 0.00 0.00 0.00
20240717211648 68 304 0.0 0.0 0.00 0.00 0.00
20240717211149 68 304 0.0 0.0 0.00 0.00 0.00
20240717210650 68 304 0.0 0.0 0.00 0.00 0.00
20240717210147 68 304 0.0 0.0 0.00 0.00 0.00
20240717205148 67 304 0.0 0.0 0.00 0.00 0.00
20240717204649 63 304 0.0 0.0 0.00 0.00 0.00
20240717204150 62 315 2.0 2.0 0.00 0.00 0.00
20240717203648 66 312 3.0 2.0 0.00 0.00 0.00
20240717202648 69 335 0.0 0.0 0.00 0.00 0.00
20240717202148 70 335 0.0 0.0 0.00 0.00 0.00
20240717201650 70 335 0.0 0.0 0.00 0.00 0.00
20240717201148 71 335 0.0 0.0 0.00 0.00 0.00
20240717200649 70 335 1.0 0.0 0.00 0.00 0.00
20240717200148 66 311 3.0 3.0 0.00 0.00 0.00
20240717195648 65 305 2.0 2.0 0.00 0.00 0.00
20240717195306 68 298 3.0 3.0 0.00 0.00 0.00
20240717195147 68 298 3.0 3.0 0.00 0.00 0.00
20240717194147 68 315 2.0 2.0 0.00 0.00 0.00
20240717193648 70 325 4.0 4.0 0.00 0.00 0.00
20240717193148 68 333 3.0 3.0 0.00 0.00 0.00
20240717192649 69 321 2.0 2.0 0.00 0.00 0.00
20240717191648 68 297 1.0 2.0 0.00 0.00 0.00
20240717191149 69 304 1.0 1.0 0.00 0.00 0.00
20240717190650 73 311 2.0 2.0 0.00 0.00 0.00
20240717190151 75 325 2.0 3.0 0.00 0.00 0.00
20240717184151 75 336 3.0 3.0 0.00 0.00 0.00
20240717183652 77 347 3.0 4.0 0.00 0.00 0.00
20240717183149 76 336 6.0 5.0 0.00 0.00 0.00
20240717182648 78 332 4.0 4.0 0.00 0.00 0.00
20240717182149 78 315 5.0 4.0 0.00 0.00 0.00
20240717181150 80 329 6.0 7.0 0.00 0.00 0.00
20240717180149 82 312 6.0 7.0 0.00 0.00 0.00
20240717174651 83 307 6.0 7.0 0.00 0.00 0.00
20240717173649 83 315 6.0 7.0 0.00 0.00 0.00
20240717173148 83 297 8.0 5.0 0.00 0.00 0.00
20240717172649 86 290 4.0 10.0 0.00 0.00 0.00
20240717172150 84 233 4.0 5.0 0.00 0.00 0.00
20240717171648 80 278 6.0 9.0 0.00 0.00 0.00
20240717171149 84 297 6.0 5.0 0.00 0.00 0.00
20240717170650 78 311 7.0 4.0 0.00 0.00 0.00
20240717170151 79 350 4.0 6.0 0.00 0.00 0.00
20240717165652 86 32 7.0 6.0 0.00 0.00 0.00
20240717165149 91 356 4.0 6.0 0.00 0.00 0.00
20240717164648 92 65 4.0 2.0 0.00 0.00 0.00
20240717164149 91 14 0.0 1.0 0.00 0.00 0.00
20240717163150 79 255 3.0 3.0 0.00 0.00 0.00
20240717162648 79 284 2.0 4.0 0.00 0.00 0.00
20240717162148 77 297 2.0 4.0 0.00 0.00 0.00
20240717160649 79 281 3.0 3.0 0.00 0.00 0.00
20240717160146 77 269 6.0 7.0 0.00 0.00 0.00
20240717154648 81 194 2.0 1.0 0.00 0.00 0.00
20240717154149 78 266 4.0 5.0 0.00 0.00 0.00
20240717153645 79 249 6.0 5.0 0.00 0.00 0.00
20240717153146 81 218 6.0 7.0 0.00 0.00 0.00
20240717152646 80 276 5.0 5.0 0.00 0.00 0.00
20240717150642 80 312 8.0 8.0 0.00 0.00 0.00
20240717150143 80 295 9.0 11.0 0.00 0.00 0.00
20240717145643 78 252 8.0 5.0 0.00 0.00 0.00
20240717145143 77 273 10.0 8.0 0.00 0.00 0.00
20240717144640 79 283 7.0 8.0 0.00 0.00 0.00
20240717144138 81 160 7.0 3.0 0.00 0.00 0.00
20240717143638 81 277 2.0 3.0 0.00 0.00 0.00
20240717143138 78 295 6.0 4.0 0.00 0.00 0.00
20240717142136 79 240 6.0 9.0 0.00 0.00 0.00
20240717141637 78 236 9.0 6.0 0.00 0.00 0.00
20240717141138 80 273 7.0 11.0 0.00 0.00 0.00
20240717140638 80 203 5.0 0.0 0.00 0.00 0.00
20240717135637 81 276 2.0 3.0 0.00 0.00 0.00
20240717135138 79 195 4.0 3.0 0.00 0.00 0.00
20240717134638 77 248 6.0 7.0 0.00 0.00 0.00
20240717134139 77 280 7.0 8.0 0.00 0.00 0.00
20240717133639 80 314 7.0 6.0 0.00 0.00 0.00
20240717133137 79 264 8.0 8.0 0.00 0.00 0.00
20240717132638 77 263 10.0 8.0 0.00 0.00 0.00
20240717131137 78 308 9.0 6.0 0.00 0.00 0.00
20240717130136 79 278 7.0 6.0 0.00 0.00 0.00
20240717125637 80 293 6.0 10.0 0.00 0.00 0.00
20240717125138 82 231 8.0 9.0 0.00 0.00 0.00
20240717124638 80 249 7.0 11.0 0.00 0.00 0.00
20240717124136 79 297 5.0 7.0 0.00 0.00 0.00
20240717123637 78 218 7.0 6.0 0.00 0.00 0.00
20240717123138 79 276 7.0 14.0 0.00 0.00 0.00
20240717122639 80 208 6.0 6.0 0.00 0.00 0.00
20240717122140 77 250 6.0 5.0 0.00 0.00 0.00
20240717121637 76 239 5.0 5.0 0.00 0.00 0.00
20240717121138 75 277 8.0 6.0 0.00 0.00 0.00
20240717120639 76 256 7.0 4.0 0.00 0.00 0.00
20240717120140 76 240 2.0 2.0 0.00 0.00 0.00
20240717115641 77 293 5.0 7.0 0.00 0.00 0.00
20240717115139 75 242 6.0 5.0 0.00 0.00 0.00
20240717113640 78 283 5.0 6.0 0.00 0.00 0.00
20240717113138 76 256 6.0 6.0 0.00 0.00 0.00
20240717112635 77 232 5.0 6.0 0.00 0.00 0.00
20240717112136 75 278 8.0 10.0 0.00 0.00 0.00
20240717111636 77 249 6.0 5.0 0.00 0.00 0.00
20240717111137 78 210 3.0 3.0 0.00 0.00 0.00
20240717110636 75 271 7.0 6.0 0.00 0.00 0.00
20240717105634 74 259 7.0 3.0 0.00 0.00 0.00
20240717105135 73 264 9.0 4.0 0.00 0.00 0.00
20240717104636 76 174 5.0 3.0 0.00 0.00 0.00
20240717104137 77 295 8.0 5.0 0.00 0.00 0.00
20240717103634 75 257 4.0 4.0 0.00 0.00 0.00
20240717102636 73 260 6.0 10.0 0.00 0.00 0.00
20240717101636 77 246 8.0 10.0 0.00 0.00 0.00
20240717101134 78 235 4.0 4.0 0.00 0.00 0.00
20240717100635 74 274 6.0 4.0 0.00 0.00 0.00
20240717100136 74 276 9.0 9.0 0.00 0.00 0.00
20240717095138 73 250 7.0 7.0 0.00 0.00 0.00
20240717094636 74 250 8.0 7.0 0.00 0.00 0.00
20240717094136 73 290 9.0 10.0 0.00 0.00 0.00
20240717093637 77 273 10.0 7.0 0.00 0.00 0.00
20240717093138 77 229 8.0 7.0 0.00 0.00 0.00
20240717092638 76 246 9.0 11.0 0.00 0.00 0.00
20240717091636 73 246 7.0 6.0 0.00 0.00 0.00
20240717091137 76 250 0.0 4.0 0.00 0.00 0.00
20240717090637 72 291 7.0 6.0 0.00 0.00 0.00
20240717090138 72 263 6.0 10.0 0.00 0.00 0.00
20240717085635 73 297 9.0 9.0 0.00 0.00 0.00
20240717084138 75 236 7.0 10.0 0.00 0.00 0.00
20240717083639 75 191 8.0 6.0 0.00 0.00 0.00
20240717083136 74 255 4.0 6.0 0.00 0.00 0.00
20240717081638 73 281 5.0 3.0 0.00 0.00 0.00
20240717081139 71 278 5.0 4.0 0.00 0.00 0.00
20240717080637 72 219 8.0 8.0 0.00 0.00 0.00
20240717080138 71 208 8.0 7.0 0.00 0.00 0.00
20240717075638 72 181 3.0 0.0 0.00 0.00 0.00
20240717075139 69 297 6.0 5.0 0.00 0.00 0.00
20240717074640 70 283 8.0 4.0 0.00 0.00 0.00
20240717074139 70 253 8.0 9.0 0.00 0.00 0.00
20240717073638 70 293 7.0 8.0 0.00 0.00 0.00
20240717072635 70 263 9.0 5.0 0.00 0.00 0.00
20240717072136 70 269 8.0 6.0 0.00 0.00 0.00
20240717071134 69 283 5.0 5.0 0.00 0.00 0.00
20240717070636 69 253 7.0 4.0 0.00 0.00 0.00
20240717070137 69 312 9.0 7.0 0.00 0.00 0.00
20240717065638 68 281 8.0 8.0 0.00 0.00 0.00
20240717065135 69 274 8.0 6.0 0.00 0.00 0.00
20240717064135 68 263 6.0 9.0 0.00 0.00 0.00
20240717063636 68 269 7.0 5.0 0.00 0.00 0.00
20240717063136 68 276 6.0 9.0 0.00 0.00 0.00
20240717062135 67 281 6.0 4.0 0.00 0.00 0.00
20240717061636 66 249 4.0 6.0 0.00 0.00 0.00
20240717060636 66 288 4.0 5.0 0.00 0.00 0.00
20240717055633 66 270 2.0 4.0 0.00 0.00 0.00
20240717055135 65 256 4.0 3.0 0.00 0.00 0.00
20240717054136 63 243 2.0 3.0 0.00 0.00 0.00
20240717053634 63 222 3.0 2.0 0.00 0.00 0.00
20240717052138 62 191 1.0 2.0 0.00 0.00 0.00
20240717051639 62 193 2.0 3.0 0.00 0.00 0.00
20240717051138 61 193 4.0 3.0 0.00 0.00 0.00
20240717045143 62 190 1.0 1.0 0.00 0.00 0.00
20240717043644 61 181 0.0 0.0 0.00 0.00 0.00